Regional Weather Roundup
Issued by NWS

Home | Current Version | Previous Version | Graphics & Text | Print | Product List | Glossary On
Versions: 1 2 3 4 5 6 7 8 9 10 11 12 13 14 15 16 17 18 19 20 21 22 23 24 25 26 27 28 29 30 31 32 33 34 35 36 37 38 39 40 41 42 43 44 45 46 47 48 49 50
000
ASUS43 KDMX 030506
RWRIA

WEATHER ROUNDUP FOR IOWA
NATIONAL WEATHER SERVICE DES MOINES IA
1100 PM CST FRI DEC 02 2016

NOTE: "FAIR" INDICATES FEW OR NO CLOUDS BELOW 12,000 FEET WITH NO
SIGNIFICANT WEATHER AND/OR OBSTRUCTIONS TO VISIBILITY.

* - THESE STATIONS ARE NOT NWS STATIONS...THUS NOT UNDER NWS
QUALITY CONTROL.  THEY ALSO DO NOT REPORT WEATHER SUCH
AS PRECIPITATION OR FOG.

IAZ001>003-012>014-020>022-031>034-043>046-030600-
   NORTHWEST IOWA

CITY           SKY/WX    TMP DP  RH WIND       PRES   REMARKS
CARROLL *      CLOUDY    34  34 100 CALM      30.32R
CHEROKEE *     CLOUDY    32  30  92 CALM      30.31F
DENISON *      CLOUDY    34  32  93 CALM      30.30R
LE MARS *      CLOUDY    30  28  93 CALM      30.32S
ORANGE CITY *  CLOUDY    34  27  75 CALM      30.30F
SHELDON *      CLOUDY    30  28  93 CALM      30.29S
SIOUX CITY     CLEAR     29  27  92 SE5       30.32S WCI  24
SPENCER        CLOUDY    31  26  82 NW8       30.31S WCI  23
STORM LAKE *   CLOUDY    32  28  86 W3        30.31S
$$

IAZ055>058-069>071-079>083-090>094-030600-
   SOUTHWEST IOWA

CITY           SKY/WX    TMP DP  RH WIND       PRES   REMARKS
ATLANTIC *     CLOUDY    36  30  80 CALM      30.33R
AUDUBON *      CLOUDY    34  30  86 CALM      30.32S
CLARINDA *       N/A     25  25 100 CALM      30.36S
COUNCIL BLFS * CLEAR     30  30 100 CALM      30.32S
CRESTON *      CLOUDY    34  28  80 CALM      30.33S
HARLAN  *      CLOUDY    34  32  93 CALM      30.36R
RED OAK *      CLEAR     25  25 100 CALM      30.34S
SHENANDOAH *   CLEAR     27  25  93 CALM      30.36R
$$

IAZ047>049-059>061-072>074-084-030600-
   CENTRAL IOWA

CITY           SKY/WX    TMP DP  RH WIND       PRES   REMARKS
AMES           CLOUDY    34  27  75 NE3       30.34S
ANKENY *       CLOUDY    34  34 100 CALM      30.36R
BOONE *        CLOUDY    32  27  80 CALM      30.32S
CHARITON *       N/A     32  30  93 N5        30.32S WCI  27
DES MOINES     CLOUDY    37  31  78 E3        30.34S
GRINNELL*      CLOUDY    32  29  88 CALM      30.34R
KNOXVILLE *    CLOUDY    36  30  80 NE5       30.32S WCI  32
MARSHALLTOWN   CLOUDY    32  29  88 N5        30.33S WCI  27
NEWTON *       CLOUDY    34  28  80 N3        30.33S
PELLA *        CLOUDY    34  30  84 CALM      30.35S
PERRY *        CLOUDY    35  35  99 CALM      30.34S
$$

IAZ004>006-015-016-023>025-035-036-030600-
   NORTH CENTRAL IOWA

CITY           SKY/WX    TMP DP  RH WIND       PRES   REMARKS
ALGONA *       CLOUDY    32  28  86 CALM      30.31S
CLARION *      CLOUDY    32  28  86 CALM      30.32S
ESTHERVILLE    CLOUDY    30  24  78 NW7       30.30S WCI  23
FORT DODGE *   CLOUDY    32  25  74 CALM      30.33R
MASON CITY     CLOUDY    29  24  82 CALM      30.33
FOREST CITY *  CLOUDY    30  27  86 CALM      30.32R
WEBSTER CITY * CLOUDY    32  30  93 CALM      30.31S
IOWA FALLS *   CLOUDY    33  27  78 N5        30.33S WCI  28
$$

IAZ007>011-017>019-026>030-037>042-050>054-066-030600-
   NORTHEAST IOWA

CITY           SKY/WX    TMP DP  RH WIND       PRES   REMARKS
CEDAR RAPIDS   CLOUDY    30  28  92 CALM      30.32F
CHARLES CITY * CLOUDY    30  25  80 W7G17     30.34R WCI  23
CLINTON *      CLOUDY    33  26  75 NW7       30.33F WCI  27
DECORAH *      CLOUDY    28  23  80 W6        30.31R WCI  22
DUBUQUE        CLOUDY    30  23  75 NW9       30.32S WCI  22
MONTICELLO *   CLOUDY    32  23  69 NW5       30.33F WCI  27
OELWEIN *      CLOUDY    30  25  80 NW9       30.33S WCI  22
WATERLOO       CLOUDY    32  24  72 NW6       30.33  WCI  26
$$

IAZ064-065-067-068-078-030600-
   EAST CENTRAL IOWA

CITY           SKY/WX    TMP DP  RH WIND       PRES   REMARKS
DAVENPORT      CLOUDY    32  26  78 NW7       30.33F WCI  26
IOWA CITY      CLOUDY    34  26  72 NW5       30.36S WCI  30
MUSCATINE *    CLOUDY    36  27  69 CALM      30.36R
QUAD CITIES    CLOUDY    35  25  66 NW8       30.34S WCI  29
$$

IAZ062-063-075>077-085>089-095>099-030600-
   SOUTHEAST IOWA

CITY           SKY/WX    TMP DP  RH WIND       PRES   REMARKS
FAIRFIELD *    CLOUDY    34  28  80 NE3       30.34R
FORT MADISON * CLOUDY    37  30  75 N3        30.34S
KEOKUK *       PTCLDY    37  30  75 CALM      30.34R
OSKALOOSA *    CLOUDY    34  30  85 E3        30.34S
CENTERVILLE *    N/A     32  30  93 CALM      30.35R
WASHINGTON *   CLOUDY    32  28  86 N7        30.35F WCI  26
$$

ABBREVIATIONS USED IN REMARKS
   TC - TEMPERATURES IN CELSIUS
  WCI - WIND CHILL INDEX
   HX - HEAT INDEX
  VSB - VISIBILITY
$$





USA.gov is the U.S. government's official web portal to all federal, state and local government web resources and services.